sat.trackr.live / text

‹ back to catalog

STARLINK-35524

NORAD 65914 · 2025-225E

PAYLOAD ACTIVE UNKNOWN

§ Identity

Operator
Country
US
Launch date
2025-10-08
Launch site
AFWTR
Launch vehicle
Mass (kg)
RCS (m²)

Purposes: comms

External: N2YO · Heavens-Above · Gunter

§ Orbital elements

Epoch: 2026-09-20T11:25:28.538400Z

Period
93.85 min
Inclination
53.1617°
Eccentricity
0.0001104
Mean motion
15.34436565 rev/d
Perigee alt
461.8 km
Apogee alt
463.3 km
Semi-major
6,840.7 km
B*
7.1939e-4
RAAN
337.8756°
Arg perigee
78.8827°
Mean anomaly
281.2300°
Rev number
5,427

§ Raw data

STARLINK-355241 65914U 25225E   26263.47602475  .00024035  00000+0  71939-3 0  99902 65914  53.1617 337.8756 0001104  78.8827 281.2300 15.34436565 54271

JSON: /api/v1/satellites/65914 · /tle

For live sub-satellite position, see the globe view (requires WebGL).

§ Visibility from observer

Set your observer location to see the next 7 days of passes ≥ 10°. The values pass through the URL so the page stays shareable.

No JS? Fill the form by hand. The geolocation button needs JavaScript.